This demonstration page uses our WeatherBlox Daily Observations layout. Learn more.

Left ArrowRight Arrow

30.00354, -91.81873

Hourly Observations for September 18, 2022

Temp ( °F °C ) Dew Point ( °F °C ) Humidity (%) Winds ( mph kmh ) Pressure ( in mb ) Visibility ( mi km ) Precip ( " mm )
12:53 am 00:53 Clear 77 25 72 22.2 84 84 E 5 7 30.00 1016 10 16 0.00 0.00
1:53 am 01:53 Clear 76 24.4 73 22.8 91 91 ESE 7 11 29.98 1015 10 16 0.00 0.00
2:53 am 02:53 Clear 76 24.4 73 22.8 91 91 E 5 7 29.98 1015 10 16 0.00 0.00
3:53 am 03:53 Clear 76 24.4 72 22.2 88 88 ENE 3 6 29.97 1015 10 16 0.00 0.00
4:53 am 04:53 Clear 74 23.3 71 21.7 91 91 Calm 29.97 1015 10 16 0.00 0.00
5:53 am 05:53 Clear 74 23.3 71 21.7 91 91 ENE 5 7 29.98 1015 10 16 0.00 0.00
6:53 am 06:53 Clear 74 23.3 72 22.2 94 94 E 3 6 30.00 1016 10 16 0.00 0.00
7:53 am 07:53 Sunny 77 25 73 22.8 88 88 E 5 7 30.02 1017 10 16 0.00 0.00
8:53 am 08:53 Sunny 81 27.2 74 23.3 79 79 E 7 11 30.03 1017 10 16 0.00 0.00
9:53 am 09:53 Partly Cloudy 86 30 75 23.9 70 70 ESE 8 13 30.04 1017 10 16 0.00 0.00
10:53 am 10:53 Mostly Cloudy 88 31.1 74 23.3 63 63 E 6 9 30.05 1018 10 16 0.00 0.00
11:53 am 11:53 Partly Cloudy 90 32.2 73 22.8 58 58 VRB 6 9 30.05 1018 10 16 0.00 0.00
12:53 pm 12:53 Mostly Cloudy 88 31.1 72 22.2 59 59 ENE 6 9 30.03 1017 10 16 0.00 0.00
1:53 pm 13:53 Mostly Cloudy with Light Rain 82 27.8 75 23.9 79 79 S 15 24 30.02 1017 9 14 0.01 0.25
2:53 pm 14:53 Mostly Sunny 85 29.4 75 23.9 72 72 SSW 7 11 30.00 1016 10 16 0.03 0.76
3:53 pm 15:53 Sunny 91 32.8 73 22.8 56 56 SSE 6 9 29.98 1015 10 16 0.00 0.00
4:46 pm 16:46 Cloudy with Rain 85 29.4 73 22.8 68 68 ESE 10 17 29.98 1015 2 2 0.16 4.06
4:53 pm 16:53 Cloudy with Heavy Rain 82 27.8 73 22.8 74 74 undefined N/A 29.98 1015 0 0 0.55 13.97
5:05 pm 17:05 Cloudy with Thunderstorms 77 25 70 21.1 79 79 W 13 20 29.98 1015 1 2 0.26 6.60
5:08 pm 17:08 Cloudy with Thunderstorms 79 26.1 70 21.1 74 74 WNW 15 24 29.97 1015 4 6 0.26 6.60
5:29 pm 17:29 Cloudy with Nearby Thunderstorms 78 25.6 71 21.7 79 79 W 7 11 29.98 1015 10 16 0.28 7.11
5:45 pm 17:45 Cloudy with Light Rain 80 26.7 71 21.7 74 74 NW 7 11 29.98 1015 10 16 0.28 7.11
5:53 pm 17:53 Mostly Cloudy with Light Rain 81 27.2 72 22.2 74 74 WNW 6 9 29.98 1015 10 16 0.28 7.11
6:53 pm 18:53 Mostly Cloudy 82 27.8 75 23.9 79 79 ESE 6 9 29.99 1016 10 16 0.01 0.13
7:09 pm 19:09 Cloudy with Heavy Rain 80 26.7 72 22.2 76 76 S 3 6 29.99 1016 2 3 0.10 2.54
7:21 pm 19:21 Cloudy with Light Rain 79 26.1 73 22.8 82 82 S 5 7 29.98 1015 3 5 0.13 3.30
7:53 pm 19:53 Mostly Cloudy 79 26.1 73 22.8 82 82 E 7 11 29.99 1016 10 16 0.13 3.30
8:53 pm 20:53 Mostly Clear 77 25 74 23.3 90 90 Calm 30.00 1016 10 16 0.01 0.13
9:53 pm 21:53 Clear 77 25 74 23.3 90 90 Calm 30.01 1016 10 16 0.00 0.00
10:53 pm 22:53 Clear 77 25 74 23.3 90 90 E 5 7 30.02 1017 10 16 0.00 0.00
11:53 pm 23:53 Clear 76 24.4 73 22.8 91 91 E 3 6 30.01 1016 10 16 0.00 0.00

Powered by AerisWeather